Погода в Бурукане

Погода в Бурукане : погода сейчас, прогноз погоды и архив. Всё, что Вы хотите узнать о погоде в Бурукане!

Поиск расширенной информации на нашем сайте:

Другие новости

Новости СМИ2

Главная страница сайта

Новости сайта

03.07.2017

Напоминаем, что на нашем специализированном сайте Метеоцентр.Азия вы можете получить высокодетализированные автоматические прогнозы погоды по пунктам России, СНГ и мира в авиационном формате (включающие направление и скорость ветра, видимость, явления погоды, количество и форму облачности, нижнюю и верхнюю границу облачности).

Рекомендуем: шарж минск

Погода в Бурукане - сегодня

Время (UTC), дата Ветер
(°,м/с) 
Видим.   Явления Облачность Т
(°С)
Тd
(°С)
f(%) Тe
(°С)
Pmin
(гПа)
dP
(гПа)
Po
(мм)
O2
(г/м3)
Тmin Tmax R s Состояние
почвы
03 20.10.17 тихо ()   20000 м    10/0 средняя, верхняя 
[Ac trans|Cs]
-1.2 -6.9 65 -1  1022.2  -1.1  752  305           
06 20.10.17 130 (ЮВ) 20000 м    10/4 600 м верхняя 
[Sc|Cs]
+0.7 -6.8 57 +1  1021.3  -0.8  752  303           
09 20.10.17 тихо ()   20000 м    10/6 600 м средняя 
[Sc|Ac und]
-4.1 -7 80 -4  1021.6  752  308    +1.2       
12 20.10.17 тихо ()   20000 м    10/10 600 м 
[Sc]
-7.5 -8.8 90 -8  1021.2  -0.6  751  312           
15 20.10.17 тихо ()   20000 м    9/9 600 м 
[Sc]
-8.2 -9.1 93 -8  1020.3  -1  750  313           
18 20.10.17 тихо ()   20000 м    10/10 600 м 
[Sc]
-9.7 -10.2 96 -10  1018.6  -1.8  749  314           
21 20.10.17 тихо ()   20000 м    10/5 600 м средняя 
[Sc|Ac trans]
-6.7 -7.3 95 -7  1016.4  -2  748  310  -10.1        замёрзшая 
00 21.10.17 350 (С) 20000 м    10/10 600 м кучево-дожд. 
[Cb cap]
-3.6 -4.8 91 -3  1014.3  -1.8  746  305           
03 21.10.17 360 (С) 1000 м  ливневой снег  10/10 600 м кучево-дожд. 
[Cb cap]
-1.4 -1.9 96 -2  1010.9  -3.2  744  301           
06 21.10.17 тихо ()   4000 м  слаб. ливневой снег  10/10 300 м кучево-дожд. 
[Cb cap]
-0.1 -0.8 95 -0  1008.7  -2.1  742  299           
09 21.10.17 тихо ()   20000 м  {ливн. осадки}  10/10 600 м кучево-дожд. 
[Cb cap]
-1.7 -2.1 97 -2  1008.8  -2.1  742  301    +0.1     
12 21.10.17 тихо ()   20000 м  {ливн. осадки}  10/10 600 м кучево-дожд. 
[Cb cap]
-2.3 -2.6 98 -2  1008.3  -0.5  742  302           
15 21.10.17 тихо ()   4000 м  слаб. ливневой снег  10/10 600 м кучево-дожд. 
[Cb cap]
-2.2 -4.4 85 -2  1008.1  -0.2  742  302           
18 21.10.17 200 (Ю) 4000 м  слаб. ливневой снег  10/10 600 м кучево-дожд. 
[Cb cap]
-2.5 -5.6 79 -4  1008.5  0.4  742  302           
21 21.10.17 230 (ЮЗ) 4000 м  слаб. ливневой снег  10/10 600 м кучево-дожд. 
[Cb cap]
-2.3 -7.6 67 -3  1008.8  0.3  742  302  -3.1    0.8  равномерный
сухой снег
100% 
00 22.10.17 170 (Ю) 20000 м  {ливн. осадки}  10/10 600 м кучево-дожд. 
[Cb cap]
-1.7 -4.9 79 -1  1010.4  1.6  743  302           
03 22.10.17 310 (СЗ) 20000 м    8/5 600 м кучево-дожд., средняя 
[Cb cap|Ac As]
+1.7 -11 38 1011.2  0.9  744  299           
06 22.10.17 310 (СЗ) 3{10}  20000 м    3/3 600 м средняя 
[Sc|Ac As]
+2.7 -11.1 35 +1  1012.1  745  298           
09 22.10.17 310 (СЗ) 20000 м    3/3 600 м 
[Sc]
-0.1 -10.7 45 +1  1013.6  1.3  746  302    +2.8  0.0     
12 22.10.17 280 (З) 20000 м    4/4 600 м 
[Sc]
-0.2 -10.8 45 -1  1014.7  1.1  747  302           
15 22.10.17 290 (З) 20000 м    3/3 600 м 
[Sc]
-0 -11.4 42 -1  1015  0.3  747  302           
18 22.10.17 020 (С) 20000 м    ясно 
-1 -11.1 46 1016.4  1.2  748  303           
21 22.10.17 130 (ЮВ) н/о    н/о 
-9.2 -11.4 84 -9  1017.5  0.5  748  313  -9.2         
00 23.10.17 тихо ()   20000 м    ясно 
-1.6 -9.6 54 -2  1015.9  -1.1  747  304  -12.3         
03 23.10.17 150 (ЮВ) 20000 м    1/0 средняя, верхняя 
[Ac lent|Ci fib]
+4.8 -11.3 30 +6  1013.1  -2.2  746  296           
Время (UTC), дата Ветер
(°,м/с) 
Видим.   Явления Облачность Т
(°С)
Тd
(°С)
f(%) Тe
(°С)
Pmin
(гПа)
dP
(гПа)
Po
(мм)
O2
(г/м3)
Тmin Tmax R s Состояние
почвы

Для получения пояснительной информации подведите курсор к названию столбца.

ПОГОДА в Бурукане - архив

Всё, что Вы хотите узнать о погоде в Бурукане - удобно и подробно!

Выберите нужную дату (начиная с 1 января 2015* года) и нажмите кнопку "Найти".
Будут отображены архивные сводки погоды по пункту Бурукан, начиная с указанной даты.


Отображать данные в формате CSV (для использования в таблицах Excel)


Внимание! Наш архив погоды предназначен исключительно для личного некоммерческого использования в познавательных целях. Если Вам необходимы официальные справки о состоянии погоды (для производственных, юридических, коммерческих и т.п. целей), обращайтесь в органы Росгидромета.

*Примечание: данная дата относится к архиву по метеостанциям СССР (Россия, СНГ, Балтия).
Архив по метеостанциям Зарубежной Европы и Азии (кроме Китая) хранится 10 дней, по другим регионам земного шара (Китай, Африка, Америка, Австралия, Океания) - 1 день.

Бурукан - район местоположения метеостанции


Название, широта, долгота, высота метеостанции:
Бурукан 53.1°ш. 136°д. 153 м над ур. моря [Российская Федерация]

Дополнительная информация

В oтличие oт бoльшинства пoгoдных сайтoв мы публикуем пoдрoбную метеoинфoрмацию в детальнoм прoфессиoнальнoм фoрмате.

Характеристики температуры и влажнoсти вoздуха измеряются на высoте 2 м в тени вдали oт зданий и деревьев.
Скoрoсть ветра измеряется на высoте 10 м (на урoвне рoста челoвека скoрoсть ветра ниже в 1.5-2 раза). Если метеoстанция нахoдится в гoрoде или в лесу, тo скoрoсть ветра занижена на 2-4 м/с пo сравнению с oткрытым местoм. Скoрoсть ветра над акватoриями крупных рек и oзёр, а также на вершинах хoлмoв на 2-5 м/с выше, чем в oбычных услoвиях.
Атмoсфернoе давление в разных тoчках местнoсти мoжет значительнo oтличаться oт давления на метеoстанции, в зависимoсти oт услoвий рельефа (при пoдъёме на 10 м давление пoнижается примернo на 1 мм рт.ст.).